Probability
0 0 0 0 0 0 0 0 0 0 0 0 0 0 0 0 0 0 0 0 0 6 16 16 19 23 26 26 26 26 26 26 29 29 26 23 26 19 23 23 32 32 32 29 16 19 23 26 32
0 0 0 0 0 0 0 0 0 0 0 0 0 0 0 0 0 0 0 0 0 6 16 16 19 19 19 23 26 26 26 26 26 26 26 23 19 16 16 16 26 16 13 23 26 19 19 23 26
0 0 0 0 0 0 0 0 0 0 0 0 0 0 0 0 0 0 0 3 3 10 16 16 19 19 19 19 19 23 23 26 26 23 23 23 16 13 13 19 19 19 19 13 19 16 13 16 19
0 0 0 0 0 0 0 0 0 0 0 0 0 0 0 0 0 0 0 6 10 16 16 16 19 19 19 19 19 19 19 23 23 23 23 19 19 16 16 16 16 16 19 16 16 19 13 10 13
0 0 0 0 0 0 0 0 0 0 0 0 0 0 0 0 0 0 3 10 13 16 16 16 16 19 19 19 19 19 19 19 19 19 19 19 19 16 16 19 16 16 16 16 13 10 13 13 6
0 0 0 0 0 0 0 0 0 0 0 0 0 0 0 0 0 3 3 13 13 16 16 16 16 16 16 16 16 16 19 16 16 16 16 19 19 16 16 16 16 13 10 13 10 10 6 3 6
0 0 0 0 0 0 0 0 0 0 0 0 0 0 0 0 3 3 6 10 10 13 13 13 13 13 13 13 13 13 13 13 13 10 10 10 13 13 10 10 10 13 10 10 6 6 6 3 6
0 0 0 0 0 0 0 0 0 0 0 0 0 0 0 0 3 6 6 10 10 10 10 10 10 13 13 13 13 13 13 13 10 10 6 3 3 6 3 0 3 3 10 6 10 10 6 3 3
0 0 0 0 0 0 0 0 0 0 0 0 0 0 0 0 3 6 6 10 10 10 10 10 10 10 10 13 10 13 10 10 6 6 0 0 3 3 3 0 0 0 0 0 3 3 6 3 3
0 0 0 0 0 0 0 0 0 0 0 0 0 0 0 0 3 3 3 6 6 10 10 10 10 10 10 10 10 10 10 6 6 6 3 3 3 3 0 0 0 0 0 0 0 0 0 0 3
0 0 0 0 0 0 0 0 0 0 0 0 0 0 0 0 3 3 3 3 6 6 10 10 10 10 10 10 6 6 6 6 3 3 3 3 3 3 0 0 3 0 0 0 0 0 0 0 3
0 0 0 0 0 0 0 0 0 0 0 0 0 0 0 3 3 3 3 3 6 6 6 6 6 6 6 3 3 3 0 3 3 3 3 3 3 3 0 0 0 3 3 3 3 0 0 0 0
0 0 0 0 0 0 0 0 0 0 0 0 0 0 0 0 3 3 3 3 3 6 6 6 6 6 6 3 0 0 0 0 3 3 3 3 3 3 0 0 0 0 3 3 3 0 0 0 0
0 0 0 0 0 0 0 0 0 0 0 0 0 0 0 0 0 0 0 3 3 6 6 6 6 3 6 3 0 0 0 0 0 3 3 3 3 3 3 0 0 0 0 0 0 0 0 0 0
0 0 0 0 0 0 0 0 0 0 0 0 0 0 0 0 0 0 0 3 3 3 6 3 3 3 3 0 0 0 0 0 0 0 0 3 3 3 3 0 0 0 0 0 0 0 0 0 0
0 0 0 0 0 0 0 0 0 0 0 0 0 0 0 0 0 0 0 0 0 0 3 3 3 0 0 0 0 0 0 0 0 0 0 3 3 3 3 0 0 0 0 0 0 3 0 0 0
0 0 0 0 0 0 0 0 0 0 0 0 0 0 0 0 0 0 0 0 0 0 0 3 3 0 0 0 0 0 0 0 0 0 0 0 3 3 3 0 0 0 0 0 0 0 0 0 0
0 0 0 0 0 0 0 0 0 0 0 0 0 0 0 0 0 0 0 0 0 0 0 3 3 3 0 0 0 0 0 0 0 0 0 0 0 3 0 0 0 0 0 0 0 0 0 0 0
0 0 0 0 0 0 0 0 0 0 0 0 0 0 0 0 0 0 0 0 0 0 0 3 0 0 0 0 0 0 0 0 0 0 0 0 0 0 0 0 0 0 0 0 0 0 0 0 0
0 0 0 0 0 0 0 0 0 0 0 0 0 0 0 0 0 0 0 0 0 0 0 3 3 3 3 0 0 0 0 0 0 0 0 0 0 0 0 0 0 0 0 0 0 0 0 0 0
0 0 0 0 0 0 0 0 0 0 0 0 0 0 0 0 0 0 0 0 0 0 3 3 3 3 3 0 0 0 0 0 0 0 0 0 0 0 0 0 0 0 0 0 0 0 0 0 0
0 0 0 0 0 0 0 0 0 0 0 0 0 0 0 0 0 0 0 0 0 0 3 3 3 3 3 3 0 0 0 0 0 0 0 0 0 0 0 0 0 0 0 0 0 0 0 0 0
0 0 0 0 0 0 0 0 0 0 0 0 0 0 0 0 0 0 0 0 0 0 0 3 3 3 3 3 0 0 0 0 0 0 0 0 0 0 0 0 0 0 0 0 0 0 0 0 0
0 0 0 0 0 0 0 0 0 0 0 0 0 0 0 0 0 0 0 0 0 0 0 0 3 3 3 0 0 0 0 0 0 0 0 0 0 0 0 0 0 0 0 0 0 0 0 0 0
0 0 0 0 0 0 0 0 0 0 0 0 0 0 0 0 0 0 0 0 0 0 0 0 3 3 3 0 0 0 0 0 0 0 0 0 0 0 0 0 0 0 0 0 0 0 0 0 0
0 0 0 0 0 0 0 0 0 0 0 0 0 0 0 0 0 0 0 0 0 0 0 3 3 3 3 0 0 0 0 0 0 0 0 0 0 0 0 0 0 0 0 0 0 0 0 0 0
0 0 0 0 0 0 0 0 0 0 0 0 0 0 0 0 0 0 0 0 0 0 0 0 0 3 3 3 0 0 0 0 0 0 0 0 0 0 0 0 0 0 0 0 0 0 0 0 0
0 0 0 0 0 0 0 0 0 0 0 0 0 0 0 0 0 0 0 0 0 0 0 0 0 3 3 3 0 0 0 0 0 0 0 0 0 0 0 0 0 0 0 0 0 0 0 0 0
0 0 0 0 0 0 0 0 0 0 0 0 0 0 0 0 0 0 0 0 0 0 0 0 0 3 3 3 0 0 0 0 0 0 0 0 0 0 0 0 0 0 0 0 0 0 0 0 0
0 0 0 0 0 0 0 0 0 0 0 0 0 0 0 0 0 0 0 0 0 0 0 0 0 0 0 0 0 0 0 0 0 0 0 0 0 0 0 0 0 0 0 0 0 0 0 0 0
Height
5818 5820 5822 5824 5826 5828 5830 5832 5834 5835 5836 5837 5839 5840 5842 5843 5845 5848 5848 5847 5848 5849 5850 5851 5852 5853 5854 5854 5855 5856 5856 5857 5857 5858 5858 5858 5858 5858 5858 5858 5858 5858 5858 5858 5858 5857 5857 5857 5857
5814 5815 5818 5819 5821 5824 5826 5828 5829 5830 5832 5833 5835 5836 5837 5839 5840 5841 5842 5843 5844 5845 5846 5847 5849 5850 5850 5851 5852 5853 5853 5854 5854 5855 5855 5855 5855 5855 5855 5855 5855 5855 5855 5855 5854 5854 5854 5854 5853
5809 5810 5813 5815 5817 5820 5822 5824 5825 5826 5827 5829 5830 5832 5833 5835 5836 5837 5839 5840 5841 5842 5843 5844 5845 5846 5847 5848 5849 5849 5850 5850 5851 5851 5851 5852 5852 5852 5852 5852 5852 5852 5851 5851 5851 5851 5850 5850 5850
5804 5806 5808 5811 5813 5815 5817 5819 5820 5821 5823 5825 5826 5828 5830 5831 5832 5834 5835 5836 5837 5838 5839 5841 5842 5843 5843 5844 5845 5846 5846 5847 5847 5847 5848 5848 5848 5848 5848 5848 5847 5847 5847 5847 5847 5846 5846 5846 5846
5798 5800 5802 5805 5808 5810 5812 5813 5815 5816 5818 5820 5822 5823 5825 5827 5828 5829 5830 5832 5833 5834 5835 5837 5838 5839 5839 5840 5841 5841 5842 5843 5843 5843 5843 5843 5843 5843 5843 5843 5843 5843 5842 5842 5842 5841 5841 5841 5841
5793 5795 5798 5800 5803 5804 5806 5808 5809 5811 5813 5815 5817 5819 5820 5822 5823 5825 5826 5827 5829 5830 5831 5832 5833 5834 5835 5836 5837 5837 5838 5838 5838 5838 5839 5839 5839 5839 5838 5838 5838 5838 5837 5837 5837 5836 5836 5836 5835
5788 5790 5792 5795 5797 5799 5801 5802 5804 5806 5808 5810 5812 5814 5815 5817 5818 5820 5821 5822 5824 5825 5826 5827 5828 5829 5830 5831 5832 5832 5833 5833 5833 5834 5834 5833 5833 5833 5833 5833 5833 5832 5832 5831 5831 5831 5830 5830 5830
5782 5784 5786 5789 5791 5793 5795 5796 5798 5800 5802 5804 5806 5808 5810 5812 5813 5814 5816 5817 5819 5820 5821 5822 5823 5824 5825 5826 5827 5827 5828 5828 5828 5828 5828 5828 5828 5828 5828 5827 5827 5826 5826 5826 5825 5825 5824 5824 5824
5775 5779 5781 5784 5785 5787 5788 5790 5792 5794 5796 5798 5800 5802 5804 5805 5807 5809 5810 5812 5813 5814 5816 5817 5818 5819 5820 5821 5821 5822 5822 5822 5823 5823 5822 5822 5822 5822 5821 5821 5820 5820 5820 5819 5819 5818 5818 5817 5817
5769 5773 5776 5778 5779 5781 5782 5784 5786 5788 5790 5792 5794 5796 5797 5799 5801 5803 5804 5806 5807 5809 5810 5811 5812 5813 5814 5815 5815 5816 5816 5817 5817 5817 5816 5816 5816 5816 5815 5815 5814 5813 5813 5812 5812 5811 5810 5810 5809
5764 5767 5770 5771 5772 5774 5776 5778 5780 5782 5784 5786 5788 5789 5791 5793 5794 5796 5798 5800 5801 5802 5804 5805 5806 5807 5808 5809 5809 5810 5810 5810 5810 5810 5810 5810 5809 5809 5809 5808 5807 5806 5805 5805 5804 5803 5803 5802 5801
5758 5760 5762 5764 5766 5768 5770 5772 5774 5776 5778 5780 5781 5783 5784 5786 5788 5790 5791 5793 5794 5796 5797 5798 5800 5801 5802 5802 5803 5803 5804 5804 5804 5804 5803 5803 5803 5802 5802 5801 5800 5799 5798 5797 5796 5795 5794 5793 5792
5751 5754 5756 5758 5759 5761 5763 5765 5767 5770 5772 5773 5774 5776 5778 5780 5781 5783 5785 5786 5788 5789 5791 5792 5793 5794 5795 5796 5796 5797 5797 5797 5797 5797 5797 5796 5796 5795 5794 5793 5792 5791 5790 5788 5787 5786 5785 5784 5783
5744 5747 5749 5751 5753 5755 5757 5759 5761 5764 5765 5766 5768 5770 5772 5773 5775 5776 5778 5780 5781 5783 5784 5785 5786 5787 5788 5789 5790 5790 5790 5790 5790 5790 5790 5789 5788 5788 5787 5785 5784 5782 5781 5779 5778 5777 5775 5774 5773
5737 5740 5742 5744 5746 5749 5751 5753 5756 5757 5758 5760 5762 5764 5765 5767 5768 5770 5772 5773 5775 5776 5777 5779 5780 5781 5782 5783 5783 5783 5783 5783 5783 5783 5782 5781 5781 5779 5778 5777 5775 5774 5772 5770 5768 5767 5765 5764 5763
5729 5732 5736 5739 5740 5742 5745 5748 5749 5750 5752 5754 5756 5757 5759 5760 5762 5764 5765 5767 5768 5769 5771 5772 5773 5774 5775 5776 5776 5776 5776 5776 5776 5775 5774 5773 5772 5771 5769 5768 5766 5764 5762 5760 5758 5756 5754 5752 5751
5722 5725 5729 5732 5733 5734 5737 5740 5742 5743 5745 5747 5749 5750 5752 5754 5755 5757 5759 5760 5761 5763 5764 5765 5766 5767 5768 5768 5769 5769 5769 5768 5768 5767 5766 5765 5763 5762 5760 5758 5756 5754 5752 5749 5747 5745 5742 5740 5738
5715 5718 5721 5723 5725 5727 5729 5732 5734 5735 5737 5739 5741 5743 5745 5747 5749 5750 5752 5753 5754 5756 5757 5758 5759 5760 5760 5761 5761 5761 5761 5760 5759 5758 5757 5756 5754 5752 5750 5748 5746 5743 5741 5738 5735 5732 5730 5727 5725
5706 5709 5712 5714 5716 5718 5721 5724 5726 5728 5730 5732 5734 5736 5738 5739 5741 5743 5744 5746 5747 5749 5750 5751 5752 5752 5753 5753 5753 5753 5753 5752 5751 5749 5748 5746 5744 5742 5740 5737 5735 5732 5729 5726 5723 5720 5717 5714 5711
5697 5700 5703 5706 5708 5710 5712 5716 5718 5720 5722 5724 5726 5728 5730 5732 5733 5735 5737 5738 5740 5742 5743 5744 5745 5745 5745 5745 5745 5745 5744 5743 5742 5740 5738 5736 5734 5731 5729 5726 5723 5720 5717 5714 5710 5706 5703 5700 5696
5688 5692 5695 5697 5699 5701 5704 5707 5710 5712 5714 5716 5718 5720 5722 5724 5726 5727 5729 5731 5733 5734 5735 5736 5737 5737 5737 5737 5737 5736 5735 5734 5732 5730 5728 5726 5723 5720 5717 5714 5711 5707 5704 5701 5697 5693 5689 5686 5682
5679 5683 5685 5688 5690 5692 5695 5697 5703 5704 5706 5709 5711 5712 5714 5716 5718 5719 5721 5723 5725 5726 5727 5728 5728 5729 5729 5728 5728 5727 5726 5724 5722 5720 5718 5715 5712 5709 5706 5702 5699 5695 5691 5687 5684 5679 5675 5671 5667
5669 5673 5676 5678 5680 5682 5685 5687 5694 5695 5698 5700 5702 5704 5706 5708 5710 5711 5713 5715 5716 5718 5719 5720 5720 5720 5720 5719 5718 5717 5716 5714 5712 5710 5707 5704 5701 5697 5694 5690 5686 5682 5678 5674 5670 5666 5661 5656 5652
5659 5663 5665 5667 5669 5672 5677 5678 5683 5687 5690 5692 5694 5695 5697 5699 5701 5703 5705 5706 5708 5709 5710 5710 5711 5711 5710 5710 5709 5707 5706 5704 5702 5699 5696 5693 5690 5686 5682 5678 5674 5670 5666 5661 5657 5652 5647 5642 5638
5649 5653 5656 5657 5659 5663 5668 5670 5674 5679 5682 5684 5685 5687 5688 5690 5692 5694 5696 5697 5699 5700 5701 5701 5701 5701 5701 5700 5699 5697 5695 5693 5691 5688 5685 5681 5678 5674 5670 5665 5661 5657 5653 5648 5644 5639 5634 5629 5624
5639 5643 5647 5650 5652 5655 5658 5661 5666 5670 5672 5674 5676 5678 5679 5681 5683 5685 5687 5688 5689 5690 5691 5692 5692 5691 5691 5690 5688 5686 5684 5682 5679 5676 5673 5669 5665 5661 5657 5653 5649 5644 5640 5635 5630 5625 5620 5615 5610
5628 5632 5637 5640 5642 5645 5647 5652 5657 5660 5662 5665 5667 5668 5670 5672 5674 5676 5677 5679 5680 5681 5682 5682 5682 5681 5680 5679 5677 5675 5673 5670 5668 5664 5660 5656 5652 5648 5644 5640 5636 5631 5626 5622 5617 5612 5607 5601 5596
5618 5622 5626 5629 5631 5634 5638 5642 5647 5651 5653 5655 5657 5659 5661 5663 5664 5667 5668 5669 5670 5671 5672 5672 5671 5670 5669 5668 5666 5664 5661 5659 5655 5652 5648 5644 5640 5635 5631 5627 5622 5618 5613 5608 5603 5598 5592 5587 5582
5608 5612 5615 5619 5622 5626 5629 5635 5638 5641 5643 5645 5647 5650 5652 5653 5655 5657 5658 5660 5661 5661 5661 5661 5660 5659 5658 5657 5655 5652 5650 5647 5643 5639 5635 5631 5627 5623 5618 5614 5609 5604 5599 5594 5588 5583 5578 5573 5567
5596 5601 5606 5610 5613 5617 5620 5626 5627 5630 5633 5635 5637 5639 5641 5643 5645 5647 5648 5650 5651 5651 5651 5650 5649 5648 5647 5645 5643 5640 5637 5634 5631 5627 5623 5619 5614 5610 5605 5601 5596 5591 5585 5580 5574 5569 5563 5558 5553
Wind_Speed
26 26 27 27 28 28 26 24 24 24 24 24 24 24 23 23 23 23 22 22 22 21 21 21 20 19 19 18 18 17 17 17 16 16 16 16 16 16 16 16 16 16 16 16 17 17 17 17 17
27 27 28 28 28 27 26 24 24 25 25 25 25 24 24 24 23 23 22 22 21 21 21 21 21 20 20 20 19 19 19 18 18 18 18 18 18 18 18 17 17 18 18 18 18 19 19 19 19
28 28 29 29 28 26 25 25 25 25 25 25 25 25 24 23 23 23 23 22 22 22 22 22 21 21 21 21 21 20 20 20 20 20 20 20 20 20 20 20 19 20 20 20 20 21 21 21 21
28 29 29 29 27 26 26 26 26 26 26 25 25 25 24 24 24 24 24 24 23 23 22 22 22 22 22 22 22 22 22 22 22 22 22 22 22 22 22 22 22 22 22 23 23 23 23 24 24
29 30 29 28 27 27 27 28 28 28 28 27 27 26 25 25 25 25 25 25 24 24 24 23 23 23 23 23 23 23 23 23 23 23 23 23 23 24 24 24 24 25 25 25 26 26 25 26 26
29 29 30 28 27 28 29 29 29 29 29 29 28 27 27 26 26 26 26 26 26 25 25 25 24 24 24 24 24 24 24 24 24 24 24 25 25 26 26 26 27 27 27 28 28 28 28 28 28
29 29 29 28 28 29 29 30 30 31 31 30 30 29 28 28 27 27 27 27 27 27 27 26 26 26 26 26 26 26 25 25 25 26 26 26 27 27 27 28 28 29 29 29 29 30 29 30 30
29 29 29 28 28 29 30 31 31 31 31 31 31 31 30 30 29 29 29 28 28 28 28 28 27 27 27 27 27 27 26 26 27 27 27 28 28 29 29 29 30 30 30 31 31 31 31 32 32
30 29 28 27 29 30 31 31 31 31 32 32 32 31 31 31 31 31 31 30 30 30 29 29 29 28 28 28 28 28 28 28 28 28 29 29 29 30 30 31 31 32 32 32 33 33 34 34 34
30 29 27 28 29 30 31 31 31 31 31 32 32 32 32 32 32 32 32 32 32 31 31 30 30 30 29 29 29 29 29 29 29 30 30 30 30 31 31 32 32 33 33 34 34 35 35 36 37
30 29 28 29 29 30 30 31 31 31 31 31 32 32 32 32 32 33 33 33 33 32 32 31 31 30 30 30 30 30 30 30 30 30 30 31 31 31 32 32 33 34 34 35 35 36 37 37 38
30 29 29 29 30 30 31 31 31 30 30 31 31 32 32 32 32 32 32 32 32 32 32 32 31 31 31 31 31 31 31 30 30 30 30 31 31 32 33 34 34 35 36 36 37 37 38 39 39
31 30 30 30 30 30 30 31 31 30 30 31 31 31 31 31 31 31 31 31 31 31 31 31 32 32 32 31 31 31 30 30 30 31 32 33 33 34 35 36 36 37 38 38 39 40 41 41 42
31 30 30 30 30 30 30 30 30 29 30 30 30 30 30 30 30 30 30 30 30 31 31 31 31 31 31 31 31 30 30 31 31 32 33 34 34 35 36 37 37 38 39 40 41 41 42 43 44
33 32 31 31 31 30 30 30 29 30 30 30 29 29 29 30 30 30 30 30 30 30 30 30 31 31 31 31 31 31 31 32 32 33 34 35 35 36 37 38 39 40 41 42 43 43 44 45 46
34 34 33 31 32 31 31 29 29 30 31 30 30 30 30 30 30 30 30 30 29 30 30 30 31 31 31 31 31 32 32 33 33 34 35 36 37 38 39 40 41 42 43 44 44 45 46 47 47
36 35 33 33 33 33 32 30 30 31 31 31 31 31 30 30 30 30 30 30 29 29 30 30 30 31 31 31 32 32 33 34 34 35 36 37 38 39 40 41 42 43 44 45 46 47 48 49 50
36 35 34 34 34 34 33 31 31 32 32 32 32 31 31 31 31 30 30 30 30 29 29 29 30 30 31 31 32 33 33 34 35 36 37 38 40 41 41 42 43 44 45 46 47 48 50 52 53
37 37 36 35 35 35 34 33 32 33 33 32 32 32 32 31 31 31 30 30 30 30 29 30 30 31 31 32 33 34 34 35 36 37 38 39 41 42 43 44 45 46 47 48 50 51 52 53 54
38 38 37 37 37 37 36 34 33 33 33 32 32 32 32 32 31 31 31 30 30 30 30 30 31 31 32 33 33 34 35 36 37 38 40 41 42 43 45 45 46 47 49 50 51 52 53 54 56
39 38 37 37 37 37 37 36 34 34 34 33 33 32 32 32 32 31 31 31 31 30 30 31 32 33 33 34 35 35 36 37 39 40 41 43 43 45 46 47 48 48 50 51 52 53 54 55 56
40 39 38 38 38 38 38 37 35 34 34 33 33 33 33 32 32 32 32 32 32 32 32 33 34 34 35 35 36 37 38 39 40 41 42 43 45 46 47 48 49 50 51 52 53 54 55 56 57
41 39 39 39 39 40 38 39 35 34 34 33 33 33 33 33 33 33 33 33 33 33 34 35 35 35 36 37 38 39 40 41 41 42 43 45 46 47 48 49 50 51 52 52 53 54 55 56 57
41 40 40 40 41 41 39 39 37 34 33 33 33 34 34 34 34 34 34 35 35 35 36 36 35 36 37 38 39 40 41 42 43 44 45 46 47 48 49 50 51 51 52 53 53 54 55 56 56
41 40 40 41 42 42 39 39 38 35 33 33 33 34 34 35 35 35 35 36 36 36 37 37 37 37 39 39 40 41 42 43 44 45 46 47 48 49 49 50 51 52 53 53 53 54 54 54 55
41 41 40 41 41 41 40 40 39 36 34 34 33 34 35 35 35 36 36 36 37 37 37 38 38 39 40 41 42 42 43 44 45 46 47 48 49 49 49 50 51 52 53 53 54 54 54 55 55
42 42 41 42 42 42 43 41 40 37 35 35 34 34 34 35 36 36 36 37 37 38 38 38 39 40 41 42 43 44 45 46 47 47 48 49 50 50 50 51 52 53 54 55 55 55 56 56 56
43 42 42 42 43 43 44 42 40 38 36 36 36 35 35 36 36 36 37 37 37 38 38 39 40 41 42 43 44 45 46 46 47 49 50 50 50 50 51 52 53 54 55 56 57 57 57 57 57
43 43 44 44 45 44 45 44 41 39 38 37 36 36 37 37 37 37 37 38 38 38 39 40 41 42 43 44 45 46 46 47 49 50 50 50 50 51 52 53 54 55 56 57 58 58 57 57 56
44 43 43 44 45 45 45 45 42 40 39 38 38 37 38 38 38 38 38 38 39 39 40 41 42 43 44 45 46 47 47 48 49 50 50 51 51 52 52 53 54 55 56 57 58 57 56 56 56
Wind_Direction
236 236 236 237 238 239 240 239 239 239 239 240 240 240 240 241 243 245 245 245 246 247 247 248 248 247 248 248 248 249 250 251 252 253 255 259 261 263 266 266 267 268 269 269 270 270 271 271 271
237 237 237 238 238 239 239 238 238 238 239 239 240 240 240 241 242 244 245 245 246 247 247 247 247 248 249 249 249 250 252 254 255 257 258 261 263 265 267 269 269 270 270 270 270 271 271 271 271
238 238 237 238 238 238 238 237 237 237 238 239 239 240 240 241 242 243 244 245 246 247 248 248 248 249 249 250 251 253 254 256 258 260 262 263 265 266 267 269 270 271 271 271 271 271 271 271 271
238 238 238 238 238 237 237 236 236 237 238 238 239 240 240 241 242 243 245 246 247 248 248 249 249 251 252 253 254 255 257 258 260 262 263 265 266 267 267 269 271 271 272 271 270 270 270 270 270
238 239 239 239 238 237 237 236 236 238 239 239 240 241 241 242 243 244 245 246 247 248 248 249 250 252 254 255 256 257 258 259 261 263 264 266 267 268 269 270 271 272 272 272 271 269 270 270 270
238 239 239 238 238 237 237 237 237 238 239 240 241 242 242 243 244 245 246 247 248 249 249 251 252 254 255 256 257 258 259 260 262 264 266 267 268 270 271 272 272 273 273 272 272 272 271 271 271
238 239 239 238 238 238 238 238 239 239 240 241 242 243 243 244 245 246 246 247 248 250 251 252 253 255 255 256 258 259 260 261 263 265 266 268 269 270 272 273 273 273 274 273 273 273 273 272 272
238 239 238 238 238 239 239 239 240 240 241 243 243 244 245 246 246 246 247 248 249 250 252 253 254 255 256 257 259 260 261 262 264 265 266 268 270 271 272 273 273 273 273 273 273 273 273 272 272
238 238 238 238 239 239 240 240 240 241 242 243 244 245 246 246 247 247 248 248 250 251 252 254 255 256 257 258 259 261 262 264 265 266 267 268 270 271 272 273 273 274 274 274 274 273 273 273 272
238 239 238 238 239 240 240 241 241 242 243 245 246 246 246 247 247 247 248 249 250 251 252 253 255 256 257 259 260 261 263 264 265 267 268 269 270 271 272 273 274 274 275 275 274 274 273 273 273
239 239 238 238 239 240 240 240 241 242 244 245 246 247 246 247 247 248 249 250 251 252 253 254 255 257 258 259 261 262 263 265 266 267 268 269 271 272 273 274 275 275 275 276 275 275 275 274 274
239 238 238 238 239 239 240 241 241 242 243 244 246 246 246 247 248 248 249 250 251 252 253 254 255 257 258 259 260 262 263 264 266 267 269 270 272 273 274 275 277 276 276 276 276 276 276 275 275
238 237 237 237 238 239 240 241 241 241 242 243 244 245 246 246 247 248 248 249 250 252 253 254 255 257 258 259 260 262 263 265 266 268 270 271 273 274 276 277 277 278 277 277 277 276 276 276 275
238 238 237 238 239 240 241 241 241 241 242 242 243 244 245 246 246 247 248 249 250 251 253 254 255 256 257 258 260 262 263 265 267 270 271 273 274 275 276 278 278 278 278 278 278 278 277 277 277
237 238 238 238 240 241 242 241 241 241 242 242 242 242 243 244 245 246 248 249 250 251 253 254 254 256 257 259 261 261 264 266 269 270 272 274 275 276 277 279 279 279 279 279 279 279 279 278 277
237 238 239 239 241 241 242 241 241 241 242 242 242 243 244 244 245 246 248 249 250 251 252 253 255 256 258 260 261 262 264 267 269 271 273 275 276 277 278 279 280 280 280 280 280 280 279 278 277
237 239 240 240 242 242 243 241 241 241 241 241 242 243 244 245 246 246 247 249 250 251 252 254 255 257 259 260 261 263 266 268 271 273 275 276 277 278 279 280 280 281 281 281 281 281 280 279 278
239 240 240 241 242 243 243 241 240 240 240 241 242 243 244 245 246 246 247 248 250 251 253 255 256 258 260 262 263 265 268 270 272 274 276 277 278 280 281 282 282 282 282 282 282 282 282 281 280
239 239 240 240 242 242 242 241 240 241 240 241 242 243 244 245 246 247 248 249 250 252 254 256 258 260 262 264 265 267 270 271 274 276 277 279 280 282 282 283 283 284 284 284 283 283 283 283 283
239 240 240 240 242 243 243 242 241 241 240 241 242 243 244 245 247 248 249 250 251 253 255 257 260 262 264 266 268 270 272 274 276 278 280 281 282 283 284 284 285 285 285 285 285 285 285 285 285
240 241 241 242 243 244 244 242 240 240 240 241 242 243 244 246 248 249 249 250 251 253 256 259 261 264 266 268 270 272 274 276 278 280 281 282 284 284 285 285 286 287 287 287 286 286 287 287 286
240 241 242 243 244 244 244 243 239 240 240 241 243 244 246 247 249 250 250 251 253 255 257 260 263 266 268 270 272 274 276 277 279 281 282 284 285 285 286 287 287 288 288 288 288 288 288 288 288
240 241 242 243 244 244 243 245 239 240 242 242 243 245 246 248 249 251 251 252 254 256 258 261 264 267 269 271 273 275 277 279 281 282 284 285 285 286 287 288 288 289 290 290 290 290 291 290 290
240 241 242 242 243 243 242 245 242 240 242 244 245 246 248 249 250 252 253 254 255 257 260 263 266 268 270 272 274 277 279 280 282 283 285 286 287 287 288 289 289 290 291 291 291 292 292 292 291
239 240 241 242 242 243 242 244 245 243 243 245 247 248 249 249 251 253 254 255 257 259 262 265 267 269 271 273 275 278 279 281 283 285 286 287 288 288 289 290 290 291 292 292 293 293 293 292 292
238 239 241 244 245 246 245 245 246 246 246 247 249 250 250 251 251 253 255 256 258 260 263 265 268 270 272 274 277 278 280 282 284 285 287 288 288 289 289 289 290 291 292 293 293 294 294 294 293
237 238 240 243 245 247 247 246 247 249 250 250 251 251 251 252 252 253 255 257 259 261 264 266 268 271 273 276 277 279 281 283 284 286 287 289 289 289 289 289 290 291 292 292 293 293 294 294 294
237 237 239 241 244 246 247 248 248 249 251 252 253 253 252 252 252 253 255 258 260 263 265 268 270 272 275 277 278 280 281 284 285 286 288 288 289 289 289 290 290 291 292 292 293 293 294 294 293
236 237 238 241 243 246 249 250 250 252 253 253 254 253 253 253 254 255 257 259 262 264 267 269 272 274 276 277 279 280 282 284 285 286 287 288 288 289 290 290 291 292 293 293 294 294 294 294 293
236 237 239 241 243 245 248 251 252 254 254 255 255 255 256 256 256 256 258 261 263 266 268 270 273 275 277 278 279 281 282 284 285 286 287 287 288 289 290 291 292 293 293 294 294 294 293 293 293